AirNav   Pilot Hours Calculator
 
 797 users online  

KNGU Norfolk Naval Station (Chambers Field)
Norfolk, Virginia, USA

GOING TO NORFOLK?


FAA INFORMATION EFFECTIVE 05 DECEMBER 2019

Location

FAA Identifier: NGU
Lat/Long: 36-56-14.8838N 076-17-21.4006W
36-56.248063N 076-17.356677W
36.9374677,-76.2892779
(estimated)
Elevation: 14.8 ft. / 4.5 m (surveyed)
Variation: 10W (1990)
Time zone: UTC -5 (UTC -4 during Daylight Saving Time)
Zip code: 23503

Airport Operations

Airport use: Private use. Permission required prior to landing
Activation date: 04/1943
Control tower: yes
ARTCC: WASHINGTON CENTER
FSS: LEESBURG FLIGHT SERVICE STATION
NOTAMs facility: NGU (NOTAM-D service available)
Attendance: CONTINUOUS
CLSD 24 DEC 1900Z - 26 DEC 1200Z. CLSD 31 DEC 1900Z - 2 JAN 1200Z.
Segmented circle: no
Lights: AVBL ONLY DURING HRS OF OPERATION.
Beacon: white-white-green (lighted military airport)
Operates sunset to sunrise.

Airport Communications

ATIS: 118.425 342.0
CHAMBERS GROUND: 121.8 298.95 ;NAVY NORFOLK HELIN 370.85
CHAMBERS TOWER: 124.3 126.375 ;NAVY NORFOLK HELIN 290.5 ;NAVY NORFOLK HELIN 379.15
NORFOLK APPROACH: 118.9 ;010-310
CLEARANCE DELIVERY: 120.7 339.8
AMC/ATOC: 130.65 349.5
BASE OPS: 134.1 268.8
EMERG: 121.5 243.0
PMSV METRO: 271.6
RADAR: 119.2 134.1 263.6 302.0 309.2 346.8
WX ASOS at ORF (5 nm SE): PHONE 757-460-9348
WX AWOS-3PT at PVG (12 nm SW): 118.375 (757-465-2175)
WX ASOS at NTU (14 nm SE): PHONE DSN 433-3619 or 757-433-3619
WX ASOS at PHF (15 nm NW): PHONE 757-874-3682
WX AWOS-3 at CPK (16 nm S): 123.675 (757-204-4290)
  • NOTIFY CHAMBERS OPNS ON FREQ 268.8 ON ALL VIP FLIGHTS 15 MIN PRIOR TO ARRIVAL.
  • ALL RADAR FREQUENCIES ARE ON REQUEST.

Nearby radio navigation aids

VOR radial/distance  VOR name  Freq  Var
ORFr310/5.1NORFOLK VORTAC116.9007W
CCVr220/28.3CAPE CHARLES VORTAC112.2010W
HCMr154/36.7HARCUM VORTAC108.8007W
FKNr078/37.2FRANKLIN VORTAC110.6009W

 
NDB name  Hdg/Dist  Freq  Var  ID
INGLE352/6.132909WOR --- .-.
WAKEFIELD106/34.227411WAKQ .- -.- --.-

Airport Services

Bottled oxygen: NONE
Bulk oxygen: HIGH/LOW

Runway Information

Runway 10/28

Dimensions: 8370 x 200 ft. / 2551 x 61 m
Surface: asphalt/grooved
Weight bearing capacity: 
PCN 56 /R/B/W/T
Runway edge lights: high intensity
RUNWAY 10  RUNWAY 28
Latitude: 36-56.247967N36-56.248162N
Longitude: 076-18.215905W076-16.497447W
Elevation: 13.2 ft.12.5 ft.
Traffic pattern: leftright
Runway heading: 100 magnetic, 090 true280 magnetic, 270 true
Displaced threshold: 299 ft.995 ft.
Declared distances: TORA:8370 LDA:8071TORA:8370 LDA:7375
Visual slope indicator: 4-light PAPI on right (3.00 degrees glide path)4-light PAPI on right (3.00 degrees glide path)
Approach lights: ALSF2: standard 2,400 foot high intensity approach lighting system with centerline sequenced flashers (category II or III)
OLS RYS 10 & 28.
SSALS: simplified short approach lighting system
Runway end identifier lights: yesyes
Centerline lights: yesyes
Touchdown point: yes, lightedyes, lighted
Instrument approach: ILS/DME

Airport Ownership and Management from official FAA records

Ownership: U.S. Navy
Owner: U.S. NAVY
OCEANOGRAPHIC OFC-CODE 3142
WASHINGTON, DC 20373
Manager: COMMANDING OFFICER
NAVAL AIR STATION
NORFOLK, VA 23511

Additional Remarks

E60-28 HOOK E28 (B) (1062').
E60-10 HOOK E28(B) (1500').
AOE.
CAUTION: EXTV FISH SPOTTER ACFT ACT (SENG GENERAL AVIATION ACFT) UPWARDS FR 1500 FT OVER CHESAPEAKE BAY AND ADJ COASTAL WATERS. EXTV VFR TFC OPR W OF CHAMBERS CLASS D AND NORFOLK CLASS C AIRSPACE. BIRD HAZ.
TFC PAT: RGT TFC RWY 28. BASIC F/W/VFR MIN 1000' AND 3 NM. HELIPORT RWY 09/27.
NS ABTMT: NO PRACTICE APCH 0400-1200Z++ MON-SAT; 0400-1800Z++ SUN. OT BY NOTAM. NO COPTER OVFT WILLOUGHBY SPIT EXC VIA PT XRAY (CHAMBERS TACAN R-042/1.5 DME) OR PT YANKEE (CHAMBERS TACAN R-009/1.8 DME) AT 500'.
CSTMS/AG/IMG: CSTMS AVBL WITH 2 HR PN. AG AVBL 1300-2400Z++ MON-FRI. IMG AVBL 1300-2100Z++ MON-FRI. AG/IMG AVBL OT ON OVERTIME BASIS ONLY, PRIOR ARNG RQR.
MISC: RY 10/28 GROOVED.
CAUTION: ARRIVING/DEPARTING TCAS EQUIPPED ACFT SHOULD EXPECT NUMEROUS TCAS ALERTS FROM SHIP TRANSPONDER HARBORED OR TRANSITING INTO/OUT OF THE CHESAPEAKE AND COASTAL WATERS.
ARRIVING/DEPARTING TCAS EQUIPED ACFT SHOULD EXPECT NUMEROUS TCAS ALERTS FROM SHIP TRANSPONDER OR TRANSMITTING INTO/OUT OF THE CHESAPEAKE AND COASTAL WATERS.
CAUTION - DO NOT MISTAKE NORFOLK INTL 5 NM SE FOR CHAMBERS FIELD, WHILE INBD ON TACAN/RNAV RY 28 APCHS. CHAMBERS FIELD HAS A SINGLE RY; NORFOLK INTL HAS INTERSECTING RYS.
RSTD - PPR FOR NON CHAMBERS FIELD BASED ACFT. DSN 262-3419/3429 C757-322-3419/3429.
AMC/ATOC DSN 564-4735/3922, C757-444-4735/3922. ACFT UTILIZING AMC TRML CTC ATOC/AMC TRML 15 MIN PRIOR ARR WITH LOAD RPT. ACFT OVERSEAS CTC AMC/ATOC VIA FONE PATCH 2 HR PRIOR ARR FOR CSTM. ALL OTHER ACFT, CTC BASE OPS 15 MIN PRIR ARR.
MISC- FLT PLANS FOR NS NORFOLK, CHAMBERS FLD, AND NAS OCEANA SHOULD BE FAXED TO DSN 565-9680, C757-445-9680, OR EMAILED TO KNGU.FLTPLNG.FCT@NAVY.MIL. TO CFM RECEIPT OF FLT PLANS CALL NS NORFOLK, CHAMBERS FLD FLT PLANNING SUPERVISOR AT DSN 262-3419/3429, C757-322-3419/3429.
A-GEAR: AVOID CNTRLINE LGT RWY 10/28 DUR CABLE ENGAGEMENT TO PREVENT TAILHOOK SKIP. DIST RWY 28 MEASURED FR DISPL THLD. E-28(B) IN RAISED POSN AT DEP END OF RWY NMLLY. SHORTFLD GEAR AVBL WITH 20 MIN PN.
JASU:(NC-10C) (NC-8A/A1) (NCPP-105 CTC AIR OPS DUTY OFFICER TO ENSURE AVBL.)
FUEL: NO TRAN COPTER HOT PIT WO PRIOR COORD WITH HOST SQUADRON. J5.
FLUID: ADI SP PRESAIR LHOX LOX.
OIL: UNAVBLE.
TRAN ALERT: LTD TRAN MAINT AVBL WKD ONLY 1200-2000Z++. TRAN MAINT UNAVBL OT. 2 HR PN RQR FOR LOX. LAVATORY SVC UNAVBL FOR C-130 ACFT. POTABLE WATER UNAVBL. NO TRAN WORK/MSN PLANNING/BRIEFING SPACES OR COMSEC STOR FOR DETS.
RSTD: TWY B CLSD S OF TWY F AND TWY D CLSD E OF TWY S UFN.

Instrument Procedures

NOTE: All procedures below are presented as PDF files. If you need a reader for these files, you should download the free Adobe Reader.

NOT FOR NAVIGATION. Please procure official charts for flight.
FAA instrument procedures published for use from 05 December 2019 at 0900Z to 02 January 2020 at 0900Z.

 
STARs - Standard Terminal Arrivals
DRONE TWO   2 pages: [1] [2] (253KB)
TERKS TWO   download (164KB)
 
IAPs - Instrument Approach Procedures
ILS OR LOC/DME RWY 10 **CHANGED**   download (177KB)
RNAV (GPS) RWY 10 **CHANGED**   download (135KB)
RNAV (GPS) RWY 28 **CHANGED**   download (135KB)
HI-TACAN RWY 10 **CHANGED**   download (122KB)
HI-TACAN RWY 28 **CHANGED**   download (132KB)
TACAN RWY 10 **CHANGED**   download (121KB)
TACAN RWY 28 **CHANGED**   download (121KB)
Radar Approach Procedures available   download (111KB)
 
Departure Procedures
CHAMBERS NINE (VECTOR)   2 pages: [1] [2] (218KB)
NOTE: Special Take-Off Minimums/Departure Procedures apply   download (220KB)

Other nearby airports with instrument procedures:

KORF - Norfolk International Airport (5 nm SE)
KLFI - Langley Air Force Base (9 nm N)
KPVG - Hampton Roads Executive Airport (12 nm SW)
KNTU - Oceana Naval Air Station (Apollo Soucek Field) (14 nm SE)
KPHF - Newport News/Williamsburg International Airport (15 nm NW)
KCPK - Chesapeake Regional Airport (16 nm S)
KFAF - Felker Army Airfield (19 nm NW)
 
Loc | Ops | Rwys | IFR | FBO | Links
Com | Nav | Svcs | Stats | Notes
Area around KNGU (Norfolk Naval Station (Chambers Field))
 
Road maps at: MapQuest Bing Google
 
Aerial photo
WARNING: Photo may not be current or correct
Aerial photo of KNGU (Norfolk Naval Station (Chambers Field))
Photo by David Newcomer
Photo taken 10-Sep-2019
looking southeast from 5,000'.

Do you have a better or more recent aerial photo of Norfolk Naval Station (Chambers Field) that you would like to share? If so, please send us your photo.

 
Sectional chart

 
Airport diagram
Diagram of KNGU (Norfolk Naval Station (Chambers Field))
Download PDF
of official airport diagram from the FAA

 
Airport distance calculator
Flying to Norfolk Naval Station (Chambers Field)? Find the distance to fly.

From to KNGU

Sunrise and sunset
Times for 08-Dec-2019
 Local
(UTC-5)
 Zulu
(UTC)
Morning civil twilight06:3811:38
Sunrise07:0712:07
Sunset16:4721:47
Evening civil twilight17:1622:16

Current date and time
Zulu (UTC)  09-Dec-2019 00:52:35
Local (UTC-5)  08-Dec-2019 19:52:35
 
METAR
KNGU 
2nm SE 
082359Z 00000KT 10SM OVC060 11/08 A3035 RMK AO2 SLP278 T01060078 10122 20100 56012
KORF 
5nm SE 
082351Z 00000KT 10SM OVC060 12/08 A3032 RMK AO2 SLP268 T01170078 10128 20111 58015
KLFI 
9nm NW 
082356Z 34003KT 10SM FEW039 SCT055 10/07 A3035 RMK AO2A SLP284 T00950073 10116 20089 55012 $
KPVG 
12nm SW 
082356Z AUTO 34003KT 10SM BKN039 BKN050 OVC060 09/06 A3035 RMK AO2 SLP278 T00890061 10139 20089 56010
KNTU 
15nm SE 
082356Z 11007KT 10SM SCT045 OVC060 11/08 A3032 RMK AO2 SLP269 T01060083 10117 20106 58015
KPHF 
15nm NW 
082354Z 34004KT 10SM BKN048 OVC055 10/05 A3036 RMK AO2 SLP281 T01000050 10122 20094 55008
KCPK 
16nm S 
090035Z AUTO 33003KT 10SM OVC042 10/07 A3033 RMK AO2 T01000070
KNFE 
16nm SE 
082356Z AUTO 10004KT 10SM OVC060 12/08 A3032 RMK AO2 SLP270 T01220083 10144 20117 58016
KFAF 
19nm NW 
082356Z AUTO 00000KT 10SM OVC045 09/04 A3034 RMK AO2 SLP277 T00930043 10122 20092 55007 $
TAF
KNGU 
2nm SE 
0823/0923 VRB05KT 9999 BKN050 OVC100 QNH3021INS BECMG 0904/0906 VRB03KT 9999 VCSH OVC025 QNH3010INS TEMPO 0907/0913 6000 -RA BR BKN003 OVC007 FM091300 16010KT 3200 BR OVC007 QNH3005INS TEMPO 0913/0917 4800 -RA BR OVC003 FM091700 19010G20KT 9000 BR OVC003 QNH3000INS T10/0903Z T16/0922Z FN00194
KORF 
5nm SE 
081740Z 0818/0918 10007KT P6SM SCT250 FM082200 09004KT P6SM BKN060 OVC120 FM090200 13004KT P6SM OVC040 FM090600 15005KT 6SM -RA OVC025 FM090900 17007KT 3SM -RA OVC007 FM091300 19012G18KT 5SM -RA OVC009 FM091600 19012G20KT P6SM OVC025
KLFI 
9nm NW 
081800Z 0818/0924 12012KT 9999 FEW030 SCT210 QNH3030INS BECMG 0903/0904 VRB06KT 9999 BKN020 QNH3023INS BECMG 0912/0913 18009KT 8000 -SHRA BKN020 WS010/18040KT QNH3013INS BECMG 0915/0916 18012KT 8000 SHRA OVC010 WS010/18045KT QNH3010INS BECMG 0920/0921 18015KT 9999 NSW OVC018 QNH2997INS TX16/0918Z TN08/0900Z
KNTU 
15nm SE 
0823/0923 VRB05KT 9999 BKN050 OVC100 QNH3022INS BECMG 0904/0906 VRB03KT 9999 VCSH OVC025 QNH3009INS TEMPO 0907/0913 6000 -RA BR BKN003 OVC007 FM091300 16010KT 3200 BR OVC007 QNH3005INS TEMPO 0913/0917 4800 -RA BR OVC003 FM091700 19010G20KT 9000 BR OVC003 QNH3000INS T10/0903Z T16/0922Z FN00194
KPHF 
15nm NW 
081740Z 0818/0918 08008KT P6SM SCT250 FM082300 08004KT P6SM BKN060 OVC100 FM090300 13004KT P6SM OVC040 FM090600 15005KT 6SM -RA OVC025 FM090800 17007KT 2SM -RA OVC005 FM091200 19010KT 5SM -RA OVC008 FM091600 19011G18KT P6SM OVC025
NOTAMs
Click for the latest NOTAMs
NOTAMs are issued by the DoD/FAA and will open in a separate window not controlled by AirNav.

 

 
 

Would you like to see your business listed on this page?

 If your business provides an interesting product or service to pilots, flight crews, aircraft, or users of the Norfolk Naval Station (Chambers Field), you should consider listing it here.  To start the listing process, click on the button below
 
Add a business
 

Other Pages about Norfolk Naval Station (Chambers Field)

Update a link
 
Copyright © AirNav, LLC. All rights reserved. Privacy Policy  Contact